M0ZPG Weather Reports


time (UTC)temp
C
wind
direction
speed
KPH
gust
KPH
rain 1hr
cm
rain 24hr
cm
rain mn
cm
humidity
%
barometer
mb
20260831230906 17 252 0.0 4.8 0.00 0.05 0.00 70 1018.1
20260831230003 17 252 0.0 3.2 0.00 0.05 0.00 69 1018.0
20260831225405 17 252 0.0 3.2 0.00 0.05 0.05 69 1018.1
20260831224715 17 252 0.0 3.2 0.00 0.05 0.05 69 1018.1
20260831223604 17 254 0.0 4.8 0.00 0.05 0.05 68 1018.1
20260831222705 17 281 0.0 4.8 0.00 0.05 0.05 68 1018.0
20260831221803 17 307 0.0 1.6 0.00 0.05 0.05 68 1017.9
20260831220906 17 308 0.0 1.6 0.00 0.05 0.05 68 1017.8
20260831220005 17 284 0.0 6.4 0.00 0.05 0.05 68 1017.8
20260831215614 17 273 0.0 6.4 0.00 0.05 0.05 68 1017.8
20260831214504 17 248 0.0 4.8 0.00 0.05 0.05 68 1017.7
20260831213605 17 253 1.6 4.8 0.00 0.05 0.05 69 1017.7
20260831212703 17 271 0.0 6.4 0.00 0.05 0.05 70 1017.5
20260831211803 17 261 1.6 6.4 0.00 0.05 0.05 71 1017.4
20260831210903 17 250 0.0 3.2 0.00 0.05 0.05 72 1017.5
20260831210218 17 250 0.0 3.2 0.00 0.05 0.05 72 1017.3
20260831204717 17 248 0.0 3.2 0.00 0.05 0.05 72 1016.9
20260831203605 18 248 0.0 1.6 0.00 0.13 0.05 71 1016.7
20260831202704 18 248 0.0 1.6 0.00 0.13 0.05 70 1016.7
20260831201803 18 247 0.0 3.2 0.00 0.13 0.05 69 1016.5
20260831200903 18 247 0.0 1.6 0.00 0.13 0.05 69 1016.5
20260831200003 18 249 0.0 3.2 0.00 0.13 0.05 68 1016.4
20260831195404 18 241 0.0 4.8 0.00 0.13 0.05 68 1016.4
20260831194717 18 243 0.0 4.8 0.00 0.13 0.05 68 1016.4
20260831193605 19 253 0.0 4.8 0.00 0.13 0.05 68 1016.2
20260831192917 19 250 0.0 3.2 0.00 0.13 0.05 68 1016.1
20260831192014 19 217 1.6 4.8 0.00 0.13 0.05 67 1016.0
20260831190905 20 254 1.6 6.4 0.00 0.13 0.05 67 1016.0
20260831190004 20 276 1.6 6.4 0.00 0.13 0.05 66 1015.8
20260831185403 20 266 3.2 12.9 0.00 0.13 0.05 66 1015.7
20260831184505 20 262 1.6 11.3 0.00 0.13 0.05 67 1015.6
20260831182703 21 233 3.2 12.9 0.00 0.13 0.05 65 1015.5
20260831181805 21 243 3.2 11.3 0.00 0.13 0.05 64 1015.3
20260831180903 21 253 3.2 12.9 0.00 0.13 0.05 63 1015.1
20260831180005 21 255 3.2 11.3 0.00 0.13 0.05 64 1014.9
20260831175403 21 241 3.2 9.7 0.00 0.13 0.05 64 1014.8
20260831174505 21 249 3.2 14.5 0.00 0.13 0.05 64 1014.5
20260831173603 21 227 3.2 12.9 0.00 0.13 0.05 65 1014.6
20260831172703 21 275 1.6 11.3 0.00 0.13 0.05 65 1014.5
20260831171804 21 325 0.0 4.8 0.00 0.13 0.05 66 1014.4
20260831170903 21 326 0.0 6.4 0.00 0.13 0.05 66 1014.3
20260831170005 21 330 1.6 6.4 0.00 0.13 0.05 65 1014.1
20260831165405 22 328 3.2 8.0 0.00 0.13 0.05 64 1014.1
20260831164505 22 327 1.6 8.0 0.00 0.13 0.05 64 1013.9
20260831163604 22 335 1.6 8.0 0.00 0.13 0.05 64 1013.7
20260831162706 22 340 4.8 11.3 0.00 0.13 0.05 63 1013.6
20260831161805 22 331 3.2 14.5 0.00 0.13 0.05 63 1013.7
20260831161114 22 307 1.6 14.5 0.00 0.13 0.05 61 1013.6
20260831160005 22 307 1.6 4.8 0.00 0.13 0.05 61 1013.6
20260831155403 22 305 1.6 4.8 0.00 0.13 0.05 60 1013.6
20260831154715 22 261 1.6 4.8 0.00 0.13 0.05 61 1013.5
20260831153606 22 240 3.2 12.9 0.00 0.13 0.05 59 1013.5
20260831152703 23 240 3.2 11.3 0.00 0.13 0.05 58 1013.4
20260831151804 23 255 3.2 8.0 0.00 0.13 0.05 56 1013.2
20260831150905 23 273 3.2 8.0 0.00 0.13 0.05 55 1013.1
20260831150217 24 268 3.2 6.4 0.00 0.13 0.05 55 1013.1
20260831145405 24 252 3.2 11.3 0.00 0.13 0.05 54 1013.1
20260831144504 23 285 3.2 9.7 0.00 0.13 0.05 57 1013.0
20260831143603 22 265 1.6 14.5 0.00 0.13 0.05 57 1013.0
20260831142703 23 303 1.6 8.0 0.00 0.13 0.05 57 1012.8
20260831141805 23 292 1.6 8.0 0.00 0.13 0.05 56 1012.8
20260831140903 23 307 1.6 14.5 0.00 0.13 0.05 57 1012.7
20260831140217 23 299 3.2 11.3 0.00 0.13 0.05 59 1012.6
20260831135403 23 252 1.6 11.3 0.00 0.13 0.05 59 1012.6
20260831134505 23 267 1.6 17.7 0.00 0.13 0.05 59 1012.5
20260831133603 23 273 3.2 11.3 0.00 0.13 0.05 57 1012.6
20260831132705 24 264 3.2 12.9 0.00 0.13 0.05 55 1012.4
20260831131805 23 255 3.2 11.3 0.00 0.13 0.05 55 1012.3
20260831130903 23 262 3.2 12.9 0.00 0.13 0.05 57 1012.2
20260831130007 23 252 3.2 11.3 0.00 0.13 0.05 61 1012.0
20260831125403 22 260 3.2 8.0 0.00 0.13 0.05 63 1011.9
20260831124504 21 268 3.2 12.9 0.00 0.13 0.05 65 1011.9
20260831123814 22 251 3.2 11.3 0.00 0.13 0.05 63 1011.7
20260831122704 22 273 3.2 11.3 0.00 0.13 0.05 60 1011.6
20260831121806 23 230 3.2 12.9 0.00 0.13 0.05 59 1011.4
20260831120905 23 249 3.2 12.9 0.00 0.13 0.05 60 1011.2
20260831120003 23 261 3.2 11.3 0.00 0.13 0.05 60 1011.0
20260831115403 23 286 1.6 6.4 0.00 0.13 0.05 62 1011.0
20260831114503 22 315 3.2 12.9 0.03 0.13 0.05 64 1010.9
20260831113603 22 241 3.2 8.0 0.03 0.13 0.05 64 1010.8
20260831112705 21 248 3.2 11.3 0.03 0.13 0.05 66 1010.7
20260831111805 21 294 3.2 16.1 0.03 0.13 0.05 67 1010.5
20260831110906 21 301 3.2 11.3 0.03 0.13 0.05 67 1010.5
20260831110004 20 271 3.2 11.3 0.03 0.13 0.05 69 1010.3
20260831105403 20 286 3.2 9.7 0.03 0.13 0.05 68 1010.3
20260831104508 21 327 1.6 8.0 0.00 0.10 0.03 68 1010.3
20260831103605 20 229 3.2 11.3 0.00 0.10 0.03 70 1010.2
20260831102913 20 271 1.6 8.0 0.00 0.10 0.03 71 1010.0
20260831101803 19 259 1.6 6.4 0.00 0.10 0.03 74 1009.9
20260831100903 19 244 3.2 11.3 0.00 0.10 0.03 74 1009.8
20260831100215 19 245 3.2 11.3 0.00 0.10 0.03 73 1009.8
20260831095403 19 241 1.6 6.4 0.00 0.10 0.03 74 1009.8
20260831094713 19 235 1.6 14.5 0.00 0.10 0.03 74 1009.7
20260831093603 19 255 3.2 11.3 0.00 0.10 0.03 75 1009.4
20260831092703 18 268 1.6 11.3 0.00 0.10 0.03 76 1009.2
20260831092015 18 260 3.2 11.3 0.00 0.10 0.03 78 1009.2
20260831090906 18 264 1.6 12.9 0.00 0.10 0.03 77 1009.0
20260831090006 18 239 1.6 9.7 0.00 0.10 0.03 77 1008.9
20260831085405 18 251 1.6 8.0 0.00 0.10 0.03 79 1008.9
20260831084503 17 257 3.2 9.7 0.00 0.10 0.03 79 1008.7
20260831083603 17 252 3.2 12.9 0.00 0.10 0.03 79 1008.6
20260831082705 17 267 3.2 11.3 0.00 0.10 0.03 79 1008.3
20260831082016 17 262 3.2 9.7 0.00 0.10 0.03 80 1008.2
20260831080905 17 248 3.2 11.3 0.00 0.10 0.03 79 1008.1
20260831080004 17 272 3.2 11.3 0.00 0.10 0.03 80 1007.9
20260831075405 17 257 3.2 12.9 0.00 0.10 0.03 80 1007.9
20260831074504 16 254 3.2 11.3 0.00 0.10 0.03 81 1007.8
20260831073603 16 253 1.6 16.1 0.00 0.10 0.03 81 1007.5
20260831072705 16 245 1.6 6.4 0.00 0.10 0.03 82 1007.4
20260831071803 16 259 3.2 9.7 0.00 0.10 0.03 83 1007.2
20260831070905 15 235 1.6 12.9 0.00 0.10 0.03 84 1007.2
20260831070004 15 245 3.2 8.0 0.00 0.10 0.03 85 1007.1
20260831065618 15 241 1.6 8.0 0.00 0.10 0.03 85 1007.0
20260831064505 15 229 1.6 9.7 0.00 0.10 0.03 87 1006.9
20260831063605 14 226 1.6 8.0 0.00 0.10 0.03 87 1006.8
20260831062704 14 257 1.6 6.4 0.00 0.10 0.03 88 1006.8
20260831061804 14 243 1.6 6.4 0.00 0.10 0.03 88 1006.6
20260831060903 14 251 1.6 9.7 0.00 0.10 0.03 89 1006.5
20260831060003 13 232 1.6 6.4 0.00 0.10 0.03 89 1006.3
20260831055406 13 238 1.6 8.0 0.00 0.10 0.03 90 1006.2
20260831054504 13 241 1.6 6.4 0.00 0.10 0.03 89 1006.1
20260831053605 13 214 1.6 8.0 0.00 0.10 0.03 89 1006.0
20260831052705 13 256 1.6 6.4 0.00 0.10 0.03 89 1005.9
20260831051805 13 207 1.6 11.3 0.00 0.10 0.03 89 1005.9
20260831050906 13 258 1.6 9.7 0.00 0.10 0.03 89 1005.6
20260831050003 13 268 0.0 6.4 0.00 0.10 0.03 89 1005.5
20260831045403 13 266 1.6 9.7 0.00 0.10 0.03 89 1005.4
20260831044503 14 245 0.0 9.7 0.00 0.10 0.03 89 1005.3
20260831043606 14 220 1.6 6.4 0.00 0.10 0.03 89 1005.4
20260831042703 14 187 0.0 6.4 0.00 0.10 0.03 88 1005.2
20260831041807 14 202 1.6 6.4 0.00 0.10 0.03 88 1005.2
20260831040003 14 210 1.6 9.7 0.00 0.10 0.03 87 1005.1
20260831035405 15 245 1.6 11.3 0.00 0.10 0.03 87 1005.1
20260831034503 15 236 1.6 9.7 0.00 0.10 0.03 88 1005.1
20260831033603 15 239 1.6 8.0 0.00 0.10 0.03 88 1005.1
20260831032703 15 229 1.6 16.1 0.00 0.10 0.03 88 1005.1
20260831031805 15 248 1.6 11.3 0.00 0.10 0.03 88 1005.0
20260831031117 15 254 1.6 11.3 0.00 0.10 0.03 89 1004.9
20260831030003 15 239 1.6 9.7 0.00 0.10 0.03 89 1004.8
20260831025405 15 233 1.6 11.3 0.00 0.10 0.03 89 1005.0
20260831024507 15 217 3.2 11.3 0.00 0.10 0.03 89 1004.7
20260831023605 15 218 1.6 9.7 0.00 0.10 0.03 89 1004.6
20260831022703 15 215 1.6 12.9 0.00 0.10 0.03 89 1004.5
20260831022015 15 197 3.2 12.9 0.00 0.10 0.03 90 1004.4
20260831020903 15 248 1.6 6.4 0.00 0.10 0.03 90 1004.3
20260831020215 15 211 1.6 6.4 0.00 0.10 0.03 90 1004.3
20260831015616 15 233 3.2 9.7 0.00 0.10 0.03 90 1004.2
20260831014504 15 198 1.6 9.7 0.00 0.10 0.03 90 1004.3
20260831013605 15 212 3.2 9.7 0.00 0.10 0.03 90 1004.3
20260831012703 15 191 1.6 9.7 0.00 0.10 0.03 91 1004.4
20260831012016 15 166 3.2 11.3 0.00 0.10 0.03 90 1004.2
20260831010903 15 147 1.6 11.3 0.03 0.10 0.03 90 1004.5
20260831010005 15 149 1.6 11.3 0.03 0.10 0.03 90 1004.5
20260831005406 15 155 1.6 8.0 0.03 0.10 0.03 90 1004.4
20260831004506 15 145 1.6 8.0 0.03 0.10 0.03 90 1004.5
20260831003603 15 158 3.2 12.9 0.03 0.10 0.03 90 1004.6
20260831002705 16 158 1.6 16.1 0.03 0.10 0.03 89 1004.6
20260831001805 16 157 1.6 16.1 0.03 0.10 0.03 89 1004.5
20260831000904 16 151 1.6 9.7 0.00 0.08 0.00 88 1004.7
20260831000005 15 176 1.6 8.0 0.00 0.08 0.00 89 1005.0
20260830235405 15 180 0.0 6.4 0.00 0.08 0.00 89 1004.9
20260830234505 15 182 1.6 11.3 0.00 0.08 0.00 89 1005.0
20260830233605 15 167 1.6 9.7 0.00 0.08 0.00 89 1005.1
20260830232705 15 175 1.6 8.0 0.00 0.08 0.00 88 1005.2
20260830231805 15 181 0.0 3.2 0.00 0.08 0.00 87 1005.2